Time,TemperatureF,DewpointF,PressureIn,WindDirection,WindDirectionDegrees,WindSpeedMPH,WindSpeedGustMPH,Humidity,HourlyPrecipIn,Conditions,Clouds,dailyrainin,SoftwareType,DateUTC
2013-02-21 00:01:00,43.0,35.0,30.06,NW,323,0.0,-999.0,74,-99.99,,,-99.99,,2013-02-21 08:01:00,
2013-02-21 00:11:00,43.0,35.0,30.06,NW,323,0.0,-999.0,74,-99.99,,,-99.99,,2013-02-21 08:11:00,
2013-02-21 00:21:00,43.0,35.0,30.06,NW,326,0.0,-999.0,74,-99.99,,,-99.99,,2013-02-21 08:21:00,
2013-02-21 00:31:00,43.0,35.0,30.06,NW,326,0.0,-999.0,74,-99.99,,,-99.99,,2013-02-21 08:31:00,
2013-02-21 00:41:00,43.0,35.0,30.06,NW,326,0.0,-999.0,74,-99.99,,,-99.99,,2013-02-21 08:41:00,
2013-02-21 00:51:00,44.0,36.0,30.07,NNW,338,1.0,-999.0,74,-99.99,,,-99.99,,2013-02-21 08:51:00,
2013-02-21 01:01:00,43.0,36.0,30.07,NNW,338,0.0,-999.0,75,-99.99,,,-99.99,,2013-02-21 09:01:00,
2013-02-21 01:11:00,43.0,36.0,30.07,NNW,338,0.0,-999.0,75,-99.99,,,-99.99,,2013-02-21 09:11:00,
2013-02-21 01:22:00,43.0,36.0,30.07,NNW,340,0.0,-999.0,76,-99.99,,,-99.99,,2013-02-21 09:22:00,
2013-02-21 01:31:00,42.0,35.0,30.07,NNW,340,0.0,-999.0,77,-99.99,,,-99.99,,2013-02-21 09:31:00,
2013-02-21 01:41:00,42.0,35.0,30.07,NNW,340,0.0,-999.0,77,-99.99,,,-99.99,,2013-02-21 09:41:00,
2013-02-21 01:51:00,42.0,35.0,30.07,NNW,340,0.0,-999.0,76,-99.99,,,-99.99,,2013-02-21 09:51:00,
2013-02-21 02:01:00,41.0,34.0,30.07,NNW,340,0.0,-999.0,77,-99.99,,,-99.99,,2013-02-21 10:01:00,
2013-02-21 02:11:00,41.0,34.0,30.07,NNW,340,0.0,-999.0,77,-99.99,,,-99.99,,2013-02-21 10:11:00,
2013-02-21 02:21:00,41.0,35.0,30.07,NNW,340,0.0,-999.0,78,-99.99,,,-99.99,,2013-02-21 10:21:00,
2013-02-21 02:31:00,40.0,34.0,30.07,NNW,340,0.0,-999.0,79,-99.99,,,-99.99,,2013-02-21 10:31:00,
2013-02-21 02:41:00,40.0,34.0,30.07,NNW,340,0.0,-999.0,79,-99.99,,,-99.99,,2013-02-21 10:41:00,
2013-02-21 02:51:00,39.0,33.0,30.07,NNW,340,0.0,-999.0,80,-99.99,,,-99.99,,2013-02-21 10:51:00,
2013-02-21 03:01:00,38.0,33.0,30.07,NNW,340,0.0,-999.0,81,-99.99,,,-99.99,,2013-02-21 11:01:00,
2013-02-21 03:11:00,38.0,33.0,30.07,NNW,340,0.0,-999.0,81,-99.99,,,-99.99,,2013-02-21 11:11:00,
2013-02-21 03:21:00,38.0,33.0,30.07,NNW,340,0.0,-999.0,81,-99.99,,,-99.99,,2013-02-21 11:21:00,
2013-02-21 03:31:00,37.0,32.0,30.07,NNW,340,0.0,-999.0,82,-99.99,,,-99.99,,2013-02-21 11:31:00,
2013-02-21 03:41:00,37.0,32.0,30.07,NNW,340,0.0,-999.0,82,-99.99,,,-99.99,,2013-02-21 11:41:00,
2013-02-21 03:51:00,36.0,32.0,30.07,NNW,340,0.0,-999.0,84,-99.99,,,-99.99,,2013-02-21 11:51:00,
2013-02-21 04:01:00,36.0,32.0,30.07,NNW,340,0.0,-999.0,85,-99.99,,,-99.99,,2013-02-21 12:01:00,
2013-02-21 04:11:00,36.0,32.0,30.07,NNW,340,0.0,-999.0,85,-99.99,,,-99.99,,2013-02-21 12:11:00,
2013-02-21 04:21:00,36.0,32.0,30.07,NNW,340,0.0,-999.0,85,-99.99,,,-99.99,,2013-02-21 12:21:00,
2013-02-21 04:32:00,37.0,33.0,30.08,NNW,340,0.0,-999.0,85,-99.99,,,-99.99,,2013-02-21 12:32:00,
2013-02-21 04:42:00,37.0,33.0,30.08,NNW,340,0.0,-999.0,85,-99.99,,,-99.99,,2013-02-21 12:42:00,
2013-02-21 04:52:00,37.0,33.0,30.07,NNW,340,0.0,-999.0,84,-99.99,,,-99.99,,2013-02-21 12:52:00,
2013-02-21 05:01:00,36.0,32.0,30.08,NNW,340,0.0,-999.0,84,-99.99,,,-99.99,,2013-02-21 13:01:00,
2013-02-21 05:12:00,36.0,32.0,30.08,NNW,340,0.0,-999.0,84,-99.99,,,-99.99,,2013-02-21 13:12:00,
2013-02-21 05:22:00,36.0,32.0,30.09,NNW,340,0.0,-999.0,86,-99.99,,,-99.99,,2013-02-21 13:22:00,
2013-02-21 05:31:00,36.0,33.0,30.08,NNW,340,0.0,-999.0,87,-99.99,,,-99.99,,2013-02-21 13:31:00,
2013-02-21 05:41:00,36.0,33.0,30.08,NNW,340,0.0,-999.0,87,-99.99,,,-99.99,,2013-02-21 13:41:00,
2013-02-21 05:51:00,36.0,33.0,30.09,NNW,340,0.0,-999.0,88,-99.99,,,-99.99,,2013-02-21 13:51:00,
2013-02-21 06:02:00,37.0,33.0,30.09,NNW,340,0.0,-999.0,86,-99.99,,,-99.99,,2013-02-21 14:02:00,
2013-02-21 06:11:00,37.0,33.0,30.09,NNW,340,0.0,-999.0,86,-99.99,,,-99.99,,2013-02-21 14:11:00,
2013-02-21 06:21:00,38.0,34.0,30.10,NNW,340,0.0,-999.0,84,-99.99,,,-99.99,,2013-02-21 14:21:00,
2013-02-21 06:31:00,37.0,33.0,30.10,NNW,340,0.0,-999.0,84,-99.99,,,-99.99,,2013-02-21 14:31:00,
2013-02-21 06:41:00,37.0,33.0,30.10,NNW,340,0.0,-999.0,84,-99.99,,,-99.99,,2013-02-21 14:41:00,
2013-02-21 06:52:00,37.0,33.0,30.10,NNW,340,0.0,-999.0,85,-99.99,,,-99.99,,2013-02-21 14:52:00,
2013-02-21 07:01:00,37.0,33.0,30.11,NNW,340,0.0,-999.0,85,-99.99,,,-99.99,,2013-02-21 15:01:00,
2013-02-21 07:12:00,37.0,33.0,30.11,NNW,340,0.0,-999.0,85,-99.99,,,-99.99,,2013-02-21 15:12:00,
2013-02-21 07:21:00,36.0,32.0,30.11,NNW,340,0.0,-999.0,85,-99.99,,,-99.99,,2013-02-21 15:21:00,
2013-02-21 07:31:00,36.0,33.0,30.11,NNW,340,0.0,-999.0,87,-99.99,,,-99.99,,2013-02-21 15:31:00,
2013-02-21 07:42:00,36.0,33.0,30.11,NNW,340,0.0,-999.0,87,-99.99,,,-99.99,,2013-02-21 15:42:00,
2013-02-21 07:51:00,37.0,34.0,30.12,NNW,340,0.0,-999.0,88,-99.99,,,-99.99,,2013-02-21 15:51:00,
2013-02-21 08:01:00,39.0,35.0,30.13,NNW,340,0.0,-999.0,85,-99.99,,,-99.99,,2013-02-21 16:01:00,
2013-02-21 08:12:00,39.0,35.0,30.13,NNW,340,0.0,-999.0,85,-99.99,,,-99.99,,2013-02-21 16:12:00,
2013-02-21 08:21:00,41.0,35.0,30.14,NW,316,1.0,-999.0,80,-99.99,,,-99.99,,2013-02-21 16:21:00,
2013-02-21 08:31:00,43.0,37.0,30.14,NNW,327,1.0,-999.0,78,-99.99,,,-99.99,,2013-02-21 16:31:00,
2013-02-21 08:42:00,45.0,38.0,30.15,NNW,328,1.0,-999.0,75,-99.99,,,-99.99,,2013-02-21 16:42:00,
2013-02-21 08:51:00,45.0,38.0,30.15,NNW,328,1.0,-999.0,75,-99.99,,,-99.99,,2013-02-21 16:51:00,
2013-02-21 09:01:00,46.0,37.0,30.15,WSW,254,2.0,-999.0,72,-99.99,,,-99.99,,2013-02-21 17:01:00,
2013-02-21 09:11:00,46.0,37.0,30.15,WSW,254,2.0,-999.0,72,-99.99,,,-99.99,,2013-02-21 17:11:00,
2013-02-21 09:21:00,47.0,38.0,30.16,West,272,2.0,-999.0,70,-99.99,,,-99.99,,2013-02-21 17:21:00,
2013-02-21 09:32:00,47.0,37.0,30.16,WNW,297,2.0,-999.0,68,-99.99,,,-99.99,,2013-02-21 17:32:00,
2013-02-21 09:42:00,47.0,37.0,30.16,WNW,297,2.0,-999.0,68,-99.99,,,-99.99,,2013-02-21 17:42:00,
2013-02-21 09:52:00,49.0,38.0,30.16,North,360,2.0,-999.0,66,-99.99,,,-99.99,,2013-02-21 17:52:00,
2013-02-21 10:01:00,50.0,39.0,30.16,North,10,1.0,-999.0,65,-99.99,,,-99.99,,2013-02-21 18:01:00,
2013-02-21 10:11:00,50.0,39.0,30.16,North,10,1.0,-999.0,65,-99.99,,,-99.99,,2013-02-21 18:11:00,
2013-02-21 10:22:00,50.0,37.0,30.16,NNW,336,2.0,-999.0,60,-99.99,,,-99.99,,2013-02-21 18:22:00,
2013-02-21 10:31:00,51.0,37.0,30.17,NNW,327,2.0,-999.0,59,-99.99,,,-99.99,,2013-02-21 18:31:00,
2013-02-21 10:42:00,51.0,37.0,30.17,NNW,327,2.0,-999.0,59,-99.99,,,-99.99,,2013-02-21 18:42:00,
2013-02-21 10:51:00,52.0,37.0,30.17,NNW,330,2.0,-999.0,57,-99.99,,,-99.99,,2013-02-21 18:51:00,
2013-02-21 11:01:00,53.0,37.0,30.17,WNW,301,3.0,-999.0,54,-99.99,,,-99.99,,2013-02-21 19:01:00,
2013-02-21 11:11:00,53.0,37.0,30.17,WNW,301,3.0,-999.0,54,-99.99,,,-99.99,,2013-02-21 19:11:00,
2013-02-21 11:21:00,54.0,37.0,30.17,NW,309,2.0,-999.0,52,-99.99,,,-99.99,,2013-02-21 19:21:00,
2013-02-21 11:31:00,54.0,36.0,30.16,NNW,342,2.0,-999.0,50,-99.99,,,-99.99,,2013-02-21 19:31:00,
2013-02-21 11:41:00,54.0,36.0,30.16,NNW,342,2.0,-999.0,50,-99.99,,,-99.99,,2013-02-21 19:41:00,
2013-02-21 11:51:00,55.0,35.0,30.16,NNE,26,2.0,-999.0,47,-99.99,,,-99.99,,2013-02-21 19:51:00,
2013-02-21 12:01:00,56.0,34.0,30.16,NW,319,2.0,-999.0,43,-99.99,,,-99.99,,2013-02-21 20:01:00,
2013-02-21 12:11:00,57.0,34.0,30.16,NW,324,2.0,-999.0,42,-99.99,,,-99.99,,2013-02-21 20:11:00,
2013-02-21 12:21:00,57.0,34.0,30.16,NW,324,2.0,-999.0,42,-99.99,,,-99.99,,2013-02-21 20:21:00,
2013-02-21 12:31:00,58.0,33.0,30.15,NNW,347,2.0,-999.0,39,-99.99,,,-99.99,,2013-02-21 20:31:00,
2013-02-21 12:41:00,58.0,33.0,30.15,NNW,347,2.0,-999.0,39,-99.99,,,-99.99,,2013-02-21 20:41:00,
2013-02-21 12:52:00,59.0,31.0,30.14,NW,315,1.0,-999.0,35,-99.99,,,-99.99,,2013-02-21 20:52:00,
2013-02-21 13:02:00,60.0,34.0,30.14,NW,309,1.0,-999.0,38,-99.99,,,-99.99,,2013-02-21 21:02:00,
2013-02-21 13:11:00,60.0,34.0,30.14,NW,309,1.0,-999.0,38,-99.99,,,-99.99,,2013-02-21 21:11:00,
2013-02-21 13:21:00,60.0,32.0,30.14,NNW,329,1.0,-999.0,34,-99.99,,,-99.99,,2013-02-21 21:21:00,
2013-02-21 13:31:00,61.0,32.0,30.13,NW,315,1.0,-999.0,34,-99.99,,,-99.99,,2013-02-21 21:31:00,
2013-02-21 13:41:00,62.0,32.0,30.13,North,355,2.0,-999.0,32,-99.99,,,-99.99,,2013-02-21 21:41:00,
2013-02-21 13:51:00,62.0,32.0,30.13,North,355,2.0,-999.0,32,-99.99,,,-99.99,,2013-02-21 21:51:00,
2013-02-21 14:01:00,63.0,31.0,30.12,WNW,299,1.0,-999.0,30,-99.99,,,-99.99,,2013-02-21 22:01:00,
2013-02-21 14:11:00,63.0,31.0,30.12,WNW,299,1.0,-999.0,30,-99.99,,,-99.99,,2013-02-21 22:11:00,
2013-02-21 14:21:00,64.0,34.0,30.12,NW,321,1.0,-999.0,32,-99.99,,,-99.99,,2013-02-21 22:21:00,
2013-02-21 14:31:00,64.0,35.0,30.11,WNW,283,2.0,-999.0,34,-99.99,,,-99.99,,2013-02-21 22:31:00,
2013-02-21 14:41:00,64.0,35.0,30.11,WNW,283,2.0,-999.0,34,-99.99,,,-99.99,,2013-02-21 22:41:00,
2013-02-21 14:52:00,65.0,37.0,30.11,NNW,340,1.0,-999.0,35,-99.99,,,-99.99,,2013-02-21 22:52:00,
2013-02-21 15:01:00,65.0,37.0,30.11,North,11,1.0,-999.0,35,-99.99,,,-99.99,,2013-02-21 23:01:00,
2013-02-21 15:11:00,65.0,37.0,30.11,North,11,1.0,-999.0,35,-99.99,,,-99.99,,2013-02-21 23:11:00,
2013-02-21 15:21:00,65.0,37.0,30.11,South,175,1.0,-999.0,36,-99.99,,,-99.99,,2013-02-21 23:21:00,
2013-02-21 15:31:00,65.0,34.0,30.10,NNW,340,1.0,-999.0,32,-99.99,,,-99.99,,2013-02-21 23:31:00,
2013-02-21 15:41:00,65.0,34.0,30.10,NNW,340,1.0,-999.0,32,-99.99,,,-99.99,,2013-02-21 23:41:00,
2013-02-21 15:52:00,66.0,35.0,30.09,NW,314,1.0,-999.0,32,-99.99,,,-99.99,,2013-02-21 23:52:00,
2013-02-21 16:01:00,65.0,35.0,30.09,NW,313,0.0,-999.0,33,-99.99,,,-99.99,,2013-02-22 00:01:00,
2013-02-21 16:11:00,65.0,35.0,30.09,NW,313,0.0,-999.0,33,-99.99,,,-99.99,,2013-02-22 00:11:00,
2013-02-21 16:21:00,64.0,39.0,30.09,SSE,160,1.0,-999.0,40,-99.99,,,-99.99,,2013-02-22 00:21:00,
2013-02-21 16:31:00,64.0,39.0,30.09,SSE,160,1.0,-999.0,40,-99.99,,,-99.99,,2013-02-22 00:31:00,
2013-02-21 16:41:00,64.0,39.0,30.09,SSE,160,1.0,-999.0,40,-99.99,,,-99.99,,2013-02-22 00:41:00,
2013-02-21 16:51:00,62.0,38.0,30.09,NNW,346,1.0,-999.0,41,-99.99,,,-99.99,,2013-02-22 00:51:00,
2013-02-21 17:01:00,61.0,37.0,30.10,NNE,24,0.0,-999.0,41,-99.99,,,-99.99,,2013-02-22 01:01:00,
2013-02-21 17:11:00,61.0,37.0,30.10,NNE,24,0.0,-999.0,41,-99.99,,,-99.99,,2013-02-22 01:11:00,
2013-02-21 17:21:00,60.0,37.0,30.10,NE,55,0.0,-999.0,43,-99.99,,,-99.99,,2013-02-22 01:21:00,
2013-02-21 17:32:00,59.0,38.0,30.10,South,178,0.0,-999.0,46,-99.99,,,-99.99,,2013-02-22 01:32:00,
2013-02-21 17:42:00,59.0,38.0,30.10,South,178,0.0,-999.0,46,-99.99,,,-99.99,,2013-02-22 01:42:00,
2013-02-21 17:51:00,58.0,39.0,30.10,South,184,0.0,-999.0,49,-99.99,,,-99.99,,2013-02-22 01:51:00,
2013-02-21 18:01:00,57.0,39.0,30.11,South,184,0.0,-999.0,51,-99.99,,,-99.99,,2013-02-22 02:01:00,
2013-02-21 18:11:00,57.0,39.0,30.11,South,184,0.0,-999.0,51,-99.99,,,-99.99,,2013-02-22 02:11:00,
2013-02-21 18:21:00,55.0,38.0,30.11,South,184,0.0,-999.0,53,-99.99,,,-99.99,,2013-02-22 02:21:00,
2013-02-21 18:31:00,55.0,38.0,30.11,South,184,0.0,-999.0,53,-99.99,,,-99.99,,2013-02-22 02:31:00,
2013-02-21 18:42:00,55.0,38.0,30.11,South,184,0.0,-999.0,53,-99.99,,,-99.99,,2013-02-22 02:42:00,
2013-02-21 18:52:00,53.0,41.0,30.12,SE,132,1.0,-999.0,63,-99.99,,,-99.99,,2013-02-22 02:52:00,
2013-02-21 19:01:00,52.0,41.0,30.12,SE,132,1.0,-999.0,65,-99.99,,,-99.99,,2013-02-22 03:01:00,
2013-02-21 19:11:00,52.0,41.0,30.12,SE,132,1.0,-999.0,65,-99.99,,,-99.99,,2013-02-22 03:11:00,
2013-02-21 19:21:00,51.0,40.0,30.13,SE,141,1.0,-999.0,66,-99.99,,,-99.99,,2013-02-22 03:21:00,
2013-02-21 19:31:00,50.0,40.0,30.14,SE,141,0.0,-999.0,68,-99.99,,,-99.99,,2013-02-22 03:31:00,
2013-02-21 19:41:00,50.0,40.0,30.14,SE,141,0.0,-999.0,68,-99.99,,,-99.99,,2013-02-22 03:41:00,
2013-02-21 19:51:00,49.0,40.0,30.14,SE,141,0.0,-999.0,70,-99.99,,,-99.99,,2013-02-22 03:51:00,
2013-02-21 20:01:00,49.0,40.0,30.14,SE,141,0.0,-999.0,72,-99.99,,,-99.99,,2013-02-22 04:01:00,
2013-02-21 20:11:00,49.0,40.0,30.14,SE,141,0.0,-999.0,72,-99.99,,,-99.99,,2013-02-22 04:11:00,
2013-02-21 20:21:00,47.0,39.0,30.14,SE,141,0.0,-999.0,74,-99.99,,,-99.99,,2013-02-22 04:21:00,
2013-02-21 20:32:00,46.0,39.0,30.14,SE,141,0.0,-999.0,75,-99.99,,,-99.99,,2013-02-22 04:32:00,
2013-02-21 20:42:00,46.0,39.0,30.14,SE,141,0.0,-999.0,75,-99.99,,,-99.99,,2013-02-22 04:42:00,
2013-02-21 20:51:00,45.0,38.0,30.14,SE,141,0.0,-999.0,77,-99.99,,,-99.99,,2013-02-22 04:51:00,
2013-02-21 21:01:00,44.0,38.0,30.15,SE,141,0.0,-999.0,79,-99.99,,,-99.99,,2013-02-22 05:01:00,
2013-02-21 21:11:00,44.0,38.0,30.15,SE,141,0.0,-999.0,79,-99.99,,,-99.99,,2013-02-22 05:11:00,
2013-02-21 21:22:00,44.0,38.0,30.15,SE,141,0.0,-999.0,80,-99.99,,,-99.99,,2013-02-22 05:22:00,
2013-02-21 21:32:00,43.0,38.0,30.15,SE,141,0.0,-999.0,81,-99.99,,,-99.99,,2013-02-22 05:32:00,
2013-02-21 21:41:00,43.0,38.0,30.15,SE,141,0.0,-999.0,81,-99.99,,,-99.99,,2013-02-22 05:41:00,
2013-02-21 21:52:00,43.0,38.0,30.16,SE,141,0.0,-999.0,82,-99.99,,,-99.99,,2013-02-22 05:52:00,
2013-02-21 22:01:00,42.0,37.0,30.16,SE,141,0.0,-999.0,83,-99.99,,,-99.99,,2013-02-22 06:01:00,
2013-02-21 22:11:00,42.0,37.0,30.16,SE,141,0.0,-999.0,83,-99.99,,,-99.99,,2013-02-22 06:11:00,
2013-02-21 22:21:00,42.0,38.0,30.16,SE,141,0.0,-999.0,84,-99.99,,,-99.99,,2013-02-22 06:21:00,
2013-02-21 22:31:00,42.0,38.0,30.16,SE,141,0.0,-999.0,84,-99.99,,,-99.99,,2013-02-22 06:31:00,
2013-02-21 22:42:00,42.0,38.0,30.16,SE,141,0.0,-999.0,84,-99.99,,,-99.99,,2013-02-22 06:42:00,
2013-02-21 22:51:00,42.0,38.0,30.16,SE,141,0.0,-999.0,85,-99.99,,,-99.99,,2013-02-22 06:51:00,
2013-02-21 23:01:00,41.0,37.0,30.17,SE,141,0.0,-999.0,85,-99.99,,,-99.99,,2013-02-22 07:01:00,
2013-02-21 23:11:00,41.0,37.0,30.17,SE,141,0.0,-999.0,85,-99.99,,,-99.99,,2013-02-22 07:11:00,
2013-02-21 23:21:00,41.0,37.0,30.17,SE,141,0.0,-999.0,85,-99.99,,,-99.99,,2013-02-22 07:21:00,
2013-02-21 23:31:00,41.0,37.0,30.17,SE,141,0.0,-999.0,86,-99.99,,,-99.99,,2013-02-22 07:31:00,
2013-02-21 23:42:00,41.0,37.0,30.17,SE,141,0.0,-999.0,86,-99.99,,,-99.99,,2013-02-22 07:42:00,
2013-02-21 23:51:00,40.0,36.0,30.17,SE,141,0.0,-999.0,87,-99.99,,,-99.99,,2013-02-22 07:51:00,